Location: T�chigga el Be�da
(16.4766°N, 9.3887°W)
Time: 13:30:14
(UTC+00:00)

SJ 16-02 - Pass Details

Date: 27 February 2020
Orbit: 607 x 616 km, 75.0° (Epoch: 05 April)

Event Time Altitude Azimuth Distance (km) Brightness Sun altitude
Rises 20:45:30 0° 337° (NNW) 2,861 5.1 -29.9°
Reaches altitude 10° 20:47:49 10° 330° (NNW) 1,955 4.2 -30.4°
Enters shadow 20:49:56 25° 313° (NW) 1,225 3.2 -30.9°
